Theta_e
283 283 282 282 282 282 282 282 282 282 282 282 282 282 282 282 282 283 283 282 283 284
282 282 281 281 281 281 281 282 281 281 281 281 281 281 281 280 280 281 281 281 282 281
281 281 281 281 280 280 280 280 280 280 280 280 280 280 279 279 279 279 279 280 280 280
281 281 281 280 280 280 280 279 279 279 278 278 278 278 278 278 278 278 278 279 278 279
281 280 280 279 279 279 278 278 277 277 276 276 276 276 276 276 277 277 276 277 277 277
280 279 279 279 278 277 276 276 275 275 274 274 274 274 275 275 275 275 275 275 275 276
279 279 278 278 276 275 274 273 273 273 273 272 272 273 274 274 274 274 275 275 275 274
279 278 277 275 274 273 273 272 272 272 271 271 271 272 274 274 274 273 273 273 273 273
277 276 275 273 272 272 271 270 270 270 269 269 270 273 275 275 273 272 271 271 272 272
275 272 272 271 270 269 268 268 268 268 268 267 268 272 274 274 272 272 271 270 270 270
271 270 270 268 268 267 267 266 266 266 266 267 267 271 273 273 272 270 270 270 270 270
269 267 267 265 266 266 265 265 264 266 265 264 264 269 272 272 270 269 269 270 270 270
267 264 263 265 264 264 263 265 265 264 264 263 263 267 270 271 271 269 270 271 271 273
266 263 263 262 263 262 261 263 260 261 262 262 263 264 269 272 272 271 271 271 271 272
Wind_Speed
8 7 7 8 7 6 6 6 7 8 8 9 9 9 9 6 6 7 7 9 7 6
7 8 8 8 7 6 6 6 8 8 9 9 8 9 9 6 8 7 7 8 8 7
7 7 7 6 7 7 6 6 7 7 7 7 7 7 8 7 7 7 7 7 10 9
6 6 6 7 6 6 6 6 7 7 7 7 7 7 7 7 8 9 9 9 10 11
6 6 6 6 5 4 5 5 5 6 6 7 7 8 8 9 9 10 11 11 12 13
5 5 5 5 5 4 4 4 5 5 7 8 9 9 8 8 11 11 12 12 13 14
5 4 4 4 3 3 4 5 5 6 6 7 8 8 9 11 11 12 11 12 13 14
5 5 4 3 3 3 5 5 5 6 6 7 8 7 12 11 12 13 14 14 13 13
6 4 3 3 3 3 4 5 5 6 6 7 6 14 15 14 12 13 14 14 14 14
5 4 3 2 1 3 3 4 4 4 6 7 8 14 17 17 11 12 12 14 14 14
6 4 3 1 1 2 2 3 4 5 5 7 8 16 17 18 12 11 13 13 14 16
5 5 3 2 3 3 2 3 3 5 6 8 9 16 18 16 11 12 13 13 15 16
6 5 4 3 3 2 2 4 4 6 7 9 9 16 17 15 9 10 10 12 13 19
6 5 3 3 2 1 3 4 4 7 7 9 9 11 16 17 10 9 10 10 10 10
Wind_Direction
100 91 89 86 83 73 68 57 45 42 42 34 29 25 21 16 6 358 357 346 341 328
99 97 95 84 80 77 60 50 36 33 28 22 21 18 10 2 351 344 343 329 330 322
102 95 99 96 81 75 69 51 39 31 23 15 8 0 357 349 337 331 328 324 322 318
127 115 101 88 78 66 57 38 33 20 12 6 358 353 341 334 327 325 321 319 314 309
134 127 110 97 91 75 61 45 34 17 4 359 353 347 340 332 329 326 324 321 314 311
154 133 115 105 91 65 50 49 30 18 9 358 350 339 336 335 329 324 320 319 316 313
165 136 122 114 89 64 49 35 21 12 5 354 340 332 339 330 324 319 319 317 315 313
156 138 135 118 64 44 39 26 7 358 355 348 339 338 331 327 321 318 316 314 311 307
158 151 125 71 31 20 12 5 357 351 342 335 326 321 322 322 316 314 310 309 309 307
144 136 114 83 17 352 349 334 334 330 326 319 314 314 320 318 310 307 306 306 306 304
141 139 140 142 275 289 273 311 318 315 312 314 308 316 318 316 314 304 298 300 298 294
146 149 162 200 230 250 266 319 312 311 311 305 302 316 318 317 310 299 294 291 286 280
149 159 182 214 235 223 314 307 313 312 306 296 294 304 311 314 295 290 292 284 280 277
153 166 190 205 226 251 301 307 304 300 291 280 279 283 306 307 302 294 291 293 293 287